K7EK Weather Reports


Display with metric or nautical units.
time (UTC)temp
F
wind
direction
speed
MPH
gust
MPH
rain 1hr
in
rain 24hr
in
rain mn
in
humidity
%
barometer
mb
20260905213105 95 184 2.0 6.0 0.00 0.00 0.00 53 1011.3
20260905211556 96 134 2.0 5.0 0.00 0.00 0.00 53 1011.3
20260905204603 96 138 1.0 11.0 0.00 0.00 0.00 53 1011.6
20260905203057 96 0 1.0 6.0 0.00 0.00 0.00 52 1011.7
20260905201556 96 165 1.0 7.0 0.00 0.00 0.00 54 1012.0
20260905200100 94 151 0.0 8.0 0.00 0.00 0.00 56 1012.0
20260905194557 95 250 2.0 7.0 0.00 0.00 0.00 55 1012.3
20260905193106 95 153 0.0 4.0 0.00 0.00 0.00 56 1012.5
20260905191603 94 220 0.0 6.0 0.00 0.00 0.00 58 1012.5
20260905184609 95 0 1.0 3.0 0.00 0.00 0.00 58 1013.0
20260905183056 93 161 0.0 7.0 0.00 0.00 0.00 59 1013.1
20260905181601 94 168 0.0 4.0 0.00 0.00 0.00 56 1013.2
20260905180107 92 160 0.0 5.0 0.00 0.00 0.00 58 1013.6
20260905174556 93 178 1.0 4.0 0.00 0.00 0.00 59 1013.7
20260905173057 91 0 1.0 4.0 0.00 0.00 0.00 59 1013.9
20260905171552 91 167 0.0 4.0 0.00 0.00 0.00 61 1014.0
20260905170057 90 0 1.0 4.0 0.00 0.00 0.00 64 1014.4
20260905164556 90 165 0.0 3.0 0.00 0.00 0.00 63 1014.4
20260905163102 89 142 0.0 4.0 0.00 0.00 0.00 64 1014.8
20260905161600 87 163 1.0 6.0 0.00 0.00 0.00 66 1014.6
20260905160059 86 157 1.0 5.0 0.00 0.00 0.00 68 1014.8
20260905154605 86 143 2.0 6.0 0.00 0.00 0.00 72 1014.8
20260905153052 84 158 2.0 6.0 0.00 0.00 0.00 74 1015.0
20260905151602 84 155 1.0 5.0 0.00 0.00 0.00 74 1015.0
20260905150100 83 143 1.0 9.0 0.00 0.00 0.00 76 1014.9
20260905144602 82 154 1.0 8.0 0.00 0.00 0.00 77 1015.0
20260905143108 83 119 1.0 8.0 0.00 0.00 0.00 77 1015.0
20260905141603 83 0 0.0 8.0 0.00 0.00 0.00 78 1015.3
20260905140058 81 153 1.0 8.0 0.00 0.00 0.00 80 1015.2
20260905134557 81 153 1.0 7.0 0.00 0.00 0.00 83 1015.2
20260905133059 82 155 0.0 2.0 0.00 0.00 0.00 82 1015.0
20260905131600 79 153 1.0 2.0 0.00 0.00 0.00 88 1015.0
20260905130057 78 160 0.0 2.0 0.00 0.00 0.00 88 1015.1
20260905124601 78 151 0.0 2.0 0.00 0.00 0.00 89 1015.2
20260905123110 77 149 0.0 4.0 0.00 0.00 0.00 91 1015.1
20260905121555 76 0 0.0 0.0 0.00 0.00 0.00 95 1014.4
20260905120107 74 0 0.0 0.0 0.00 0.00 0.00 95 1014.3
20260905114558 74 0 0.0 0.0 0.00 0.00 0.00 95 1014.2
20260905113053 74 0 0.0 0.0 0.00 0.00 0.00 94 1014.1
20260905111630 74 0 0.0 0.0 0.00 0.00 0.00 93 1013.9
20260905110100 74 0 0.0 0.0 0.00 0.00 0.00 94 1013.5
20260905104558 74 0 0.0 0.0 0.00 0.00 0.00 93 1013.5
20260905103054 75 0 0.0 0.0 0.00 0.00 0.00 92 1013.4
20260905101552 75 0 0.0 0.0 0.00 0.00 0.00 91 1013.5
20260905100108 76 0 0.0 0.0 0.00 0.00 0.00 91 1013.3
20260905094555 76 0 0.0 1.0 0.00 0.00 0.00 90 1013.2
20260905093100 76 0 0.0 0.0 0.00 0.00 0.00 91 1013.1
20260905091600 76 0 0.0 0.0 0.00 0.00 0.00 90 1013.1
20260905090100 76 0 0.0 1.0 0.00 0.00 0.00 90 1013.0
20260905084557 76 0 0.0 0.0 0.00 0.00 0.00 91 1012.9
20260905083053 76 0 0.0 0.0 0.00 0.00 0.00 90 1013.0
20260905081606 76 0 0.0 0.0 0.00 0.00 0.00 90 1012.8
20260905080058 76 0 0.0 0.0 0.00 0.00 0.00 90 1012.9
20260905074551 76 0 0.0 0.0 0.00 0.00 0.00 90 1013.2
20260905073057 77 0 0.0 0.0 0.00 0.00 0.00 89 1013.2
20260905071556 77 0 0.0 0.0 0.00 0.00 0.00 89 1013.4
20260905070059 78 0 0.0 0.0 0.00 0.00 0.00 88 1013.5
20260905064553 78 0 0.0 0.0 0.00 0.00 0.00 87 1013.5
20260905063102 78 0 0.0 0.0 0.00 0.00 0.00 87 1013.6
20260905061611 78 0 0.0 0.0 0.00 0.00 0.00 87 1013.7
20260905060053 79 0 0.0 0.0 0.00 0.00 0.00 86 1013.9
20260905054550 79 0 0.0 0.0 0.00 0.00 0.00 86 1013.9
20260905053102 79 0 0.0 0.0 0.00 0.00 0.00 85 1014.1
20260905051557 79 0 0.0 0.0 0.00 0.00 0.00 86 1014.1
20260905044606 79 0 0.0 0.0 0.00 0.00 0.00 86 1014.4
20260905043056 79 0 0.0 0.0 0.00 0.00 0.00 87 1014.4
20260905041556 79 0 0.0 0.0 0.00 0.00 0.00 86 1014.3
20260905040105 79 0 0.0 0.0 0.00 0.00 0.00 87 1014.3
20260905034558 80 0 0.0 0.0 0.00 0.00 0.00 87 1014.5
20260905033104 80 0 0.0 0.0 0.00 0.00 0.00 88 1014.6
20260905031602 80 0 0.0 0.0 0.00 0.00 0.00 87 1014.5
20260905030122 80 0 0.0 0.0 0.00 0.00 0.00 87 1014.4
20260905024555 81 0 0.0 0.0 0.00 0.00 0.00 86 1014.5
20260905023054 81 0 0.0 0.0 0.00 0.00 0.00 84 1014.4
20260905021602 82 0 0.0 0.0 0.00 0.00 0.00 82 1014.4
20260905020105 82 0 0.0 0.0 0.00 0.00 0.00 81 1014.3
20260905014555 83 0 0.0 0.0 0.00 0.00 0.00 80 1014.4
20260905013058 83 0 0.0 0.0 0.00 0.00 0.00 79 1014.1
20260905011554 84 0 0.0 0.0 0.00 0.00 0.00 77 1013.9
20260905004610 86 0 0.0 0.0 0.00 0.00 0.00 73 1013.7
20260905003058 87 0 0.0 0.0 0.00 0.00 0.00 71 1013.6
20260905001555 89 0 0.0 0.0 0.00 0.00 0.00 68 1013.6
20260905000054 91 0 0.0 0.0 0.00 0.00 0.00 64 1013.7
20260904234554 92 0 0.0 0.0 0.00 0.00 0.00 60 1013.7
20260904233057 94 0 0.0 1.0 0.00 0.00 0.00 58 1013.8
20260904231600 95 146 0.0 0.0 0.00 0.00 0.00 56 1013.7
20260904230055 95 0 0.0 2.0 0.00 0.00 0.00 55 1013.8
20260904224601 96 0 0.0 4.0 0.00 0.00 0.00 54 1013.8
20260904223102 97 0 1.0 3.0 0.00 0.00 0.00 53 1013.8
20260904221601 98 153 0.0 2.0 0.00 0.00 0.00 49 1013.7
20260904220059 98 0 0.0 2.0 0.00 0.00 0.00 48 1013.8
20260904214554 98 182 0.0 6.0 0.00 0.00 0.00 50 1013.8